Time,TemperatureF,DewpointF,PressureIn,WindDirection,WindDirectionDegrees,WindSpeedMPH,WindSpeedGustMPH,Humidity,HourlyPrecipIn,Conditions,Clouds,dailyrainin,SoftwareType,DateUTC
2013-03-02 00:01:00,7.0,1.0,30.44,NW,312,1.0,2.0,75,0.00,,,0.00,,2013-03-02 06:01:00,
2013-03-02 00:11:00,7.0,1.0,30.44,NW,312,1.0,2.0,75,0.00,,,0.00,,2013-03-02 06:11:00,
2013-03-02 00:21:00,8.0,2.0,30.44,NW,312,0.0,2.0,76,0.00,,,0.00,,2013-03-02 06:21:00,
2013-03-02 00:31:00,9.0,3.0,30.44,NW,312,0.0,0.0,76,0.00,,,0.00,,2013-03-02 06:31:00,
2013-03-02 00:42:00,9.0,3.0,30.44,NW,312,0.0,0.0,76,0.00,,,0.00,,2013-03-02 06:42:00,
2013-03-02 00:52:00,11.0,5.0,30.44,NW,312,0.0,0.0,76,0.00,,,0.00,,2013-03-02 06:52:00,
2013-03-02 01:01:00,7.0,-1.0,30.45,NW,312,1.0,3.0,68,0.00,,,0.00,,2013-03-02 07:01:00,
2013-03-02 01:11:00,7.0,-1.0,30.45,NW,312,1.0,3.0,68,0.00,,,0.00,,2013-03-02 07:11:00,
2013-03-02 01:21:00,8.0,2.0,30.45,NW,312,0.0,2.0,76,0.00,,,0.00,,2013-03-02 07:21:00,
2013-03-02 01:32:00,9.0,2.0,30.44,NW,312,0.0,0.0,74,0.00,,,0.00,,2013-03-02 07:32:00,
2013-03-02 01:42:00,9.0,2.0,30.44,NW,312,0.0,0.0,74,0.00,,,0.00,,2013-03-02 07:42:00,
2013-03-02 01:52:00,8.0,1.0,30.43,NW,312,0.0,0.0,74,0.00,,,0.00,,2013-03-02 07:52:00,
2013-03-02 02:01:00,6.0,-1.0,30.42,NW,312,0.0,1.0,72,0.00,,,0.00,,2013-03-02 08:01:00,
2013-03-02 02:11:00,6.0,-1.0,30.42,NW,312,0.0,1.0,72,0.00,,,0.00,,2013-03-02 08:11:00,
2013-03-02 02:21:00,7.0,0.0,30.42,NW,312,1.0,2.0,73,0.00,,,0.00,,2013-03-02 08:21:00,
2013-03-02 02:32:00,8.0,2.0,30.42,NW,312,0.0,2.0,76,0.00,,,0.00,,2013-03-02 08:32:00,
2013-03-02 02:42:00,8.0,2.0,30.42,NW,312,0.0,2.0,76,0.00,,,0.00,,2013-03-02 08:42:00,
2013-03-02 02:52:00,6.0,-1.0,30.42,NW,312,0.0,1.0,73,0.00,,,0.00,,2013-03-02 08:52:00,
2013-03-02 03:01:00,5.0,-2.0,30.42,NW,312,0.0,2.0,72,0.00,,,0.00,,2013-03-02 09:01:00,
2013-03-02 03:11:00,5.0,-2.0,30.42,NW,312,0.0,2.0,72,0.00,,,0.00,,2013-03-02 09:11:00,
2013-03-02 03:21:00,7.0,1.0,30.42,WNW,290,0.0,3.0,75,0.00,,,0.00,,2013-03-02 09:21:00,
2013-03-02 03:32:00,10.0,4.0,30.41,SSW,192,2.0,4.0,77,0.00,,,0.00,,2013-03-02 09:32:00,
2013-03-02 03:42:00,10.0,4.0,30.41,SSW,192,2.0,4.0,77,0.00,,,0.00,,2013-03-02 09:42:00,
2013-03-02 03:52:00,11.0,5.0,30.40,SSE,165,2.0,5.0,76,0.00,,,0.00,,2013-03-02 09:52:00,
2013-03-02 04:01:00,11.0,5.0,30.40,South,184,3.0,5.0,75,0.00,,,0.00,,2013-03-02 10:01:00,
2013-03-02 04:15:00,11.0,5.0,30.40,South,184,3.0,5.0,75,0.00,,,0.00,,2013-03-02 10:15:00,
2013-03-02 04:22:00,11.0,5.0,30.40,South,188,2.0,5.0,75,0.00,,,0.00,,2013-03-02 10:22:00,
2013-03-02 04:32:00,11.0,5.0,30.40,SSW,193,3.0,7.0,75,0.00,,,0.00,,2013-03-02 10:32:00,
2013-03-02 04:42:00,11.0,5.0,30.40,SSW,193,3.0,7.0,75,0.00,,,0.00,,2013-03-02 10:42:00,
2013-03-02 04:52:00,12.0,6.0,30.39,SSW,197,2.0,5.0,75,0.00,,,0.00,,2013-03-02 10:52:00,
2013-03-02 05:01:00,11.0,4.0,30.39,South,191,1.0,3.0,74,0.00,,,0.00,,2013-03-02 11:01:00,
2013-03-02 05:11:00,11.0,4.0,30.39,South,191,1.0,3.0,74,0.00,,,0.00,,2013-03-02 11:11:00,
2013-03-02 05:21:00,11.0,4.0,30.39,South,180,1.0,5.0,74,0.00,,,0.00,,2013-03-02 11:21:00,
2013-03-02 05:32:00,11.0,4.0,30.39,South,170,1.0,3.0,74,0.00,,,0.00,,2013-03-02 11:32:00,
2013-03-02 05:42:00,11.0,4.0,30.39,South,170,1.0,3.0,74,0.00,,,0.00,,2013-03-02 11:42:00,
2013-03-02 05:52:00,10.0,3.0,30.39,South,170,0.0,2.0,73,0.00,,,0.00,,2013-03-02 11:52:00,
2013-03-02 06:02:00,10.0,3.0,30.38,South,180,2.0,3.0,74,0.00,,,0.00,,2013-03-02 12:02:00,
2013-03-02 06:11:00,10.0,3.0,30.38,South,180,2.0,3.0,74,0.00,,,0.00,,2013-03-02 12:11:00,
2013-03-02 06:21:00,9.0,2.0,30.37,South,177,1.0,3.0,73,0.00,,,0.00,,2013-03-02 12:21:00,
2013-03-02 06:33:00,8.0,1.0,30.38,SE,141,1.0,3.0,72,0.00,,,0.00,,2013-03-02 12:33:00,
2013-03-02 06:43:00,8.0,1.0,30.38,SE,141,1.0,3.0,72,0.00,,,0.00,,2013-03-02 12:43:00,
2013-03-02 06:53:00,7.0,0.0,30.38,SE,141,0.0,2.0,72,0.00,,,0.00,,2013-03-02 12:53:00,
2013-03-02 07:01:00,6.0,-1.0,30.38,SE,140,0.0,2.0,73,0.00,,,0.00,,2013-03-02 13:01:00,
2013-03-02 07:11:00,6.0,-1.0,30.38,SE,140,0.0,2.0,73,0.00,,,0.00,,2013-03-02 13:11:00,
2013-03-02 07:21:00,7.0,0.0,30.37,SE,132,1.0,4.0,74,0.00,,,0.00,,2013-03-02 13:21:00,
2013-03-02 07:32:00,7.0,0.0,30.37,SE,132,1.0,4.0,74,0.00,,,0.00,,2013-03-02 13:32:00,
2013-03-02 07:42:00,7.0,0.0,30.37,SE,132,1.0,4.0,74,0.00,,,0.00,,2013-03-02 13:42:00,
2013-03-02 07:52:00,8.0,1.0,30.37,SE,135,2.0,3.0,74,0.00,,,0.00,,2013-03-02 13:52:00,
2013-03-02 08:01:00,8.0,1.0,30.37,SE,135,2.0,3.0,74,0.00,,,0.00,,2013-03-02 14:01:00,
2013-03-02 08:11:00,8.0,1.0,30.37,SE,135,2.0,3.0,74,0.00,,,0.00,,2013-03-02 14:11:00,
2013-03-02 08:21:00,9.0,2.0,30.37,SE,135,2.0,5.0,73,0.00,,,0.00,,2013-03-02 14:21:00,
2013-03-02 08:32:00,10.0,3.0,30.36,SE,127,3.0,6.0,74,0.00,,,0.00,,2013-03-02 14:32:00,
2013-03-02 08:42:00,10.0,3.0,30.36,SE,127,3.0,6.0,74,0.00,,,0.00,,2013-03-02 14:42:00,
2013-03-02 08:52:00,10.0,3.0,30.35,ESE,121,2.0,7.0,74,0.00,,,0.00,,2013-03-02 14:52:00,
2013-03-02 09:02:00,11.0,4.0,30.36,SE,140,3.0,7.0,74,0.00,,,0.00,,2013-03-02 15:02:00,
2013-03-02 09:11:00,11.0,4.0,30.36,SE,140,3.0,7.0,74,0.00,,,0.00,,2013-03-02 15:11:00,
2013-03-02 09:21:00,12.0,5.0,30.35,SSE,159,4.0,8.0,74,0.00,,,0.00,,2013-03-02 15:21:00,
2013-03-02 09:32:00,13.0,6.0,30.35,SE,145,5.0,10.0,73,0.00,,,0.00,,2013-03-02 15:32:00,
2013-03-02 09:42:00,13.0,6.0,30.35,SE,145,5.0,10.0,73,0.00,,,0.00,,2013-03-02 15:42:00,
2013-03-02 09:52:00,14.0,7.0,30.35,ESE,121,3.0,8.0,73,0.00,,,0.00,,2013-03-02 15:52:00,
2013-03-02 10:01:00,14.0,7.0,30.36,ESE,120,4.0,9.0,72,0.00,,,0.00,,2013-03-02 16:01:00,
2013-03-02 10:11:00,14.0,7.0,30.36,ESE,120,4.0,9.0,72,0.00,,,0.00,,2013-03-02 16:11:00,
2013-03-02 10:21:00,16.0,9.0,30.35,SE,137,6.0,11.0,72,0.00,,,0.00,,2013-03-02 16:21:00,
2013-03-02 10:32:00,16.0,9.0,30.35,SE,141,7.0,13.0,72,0.00,,,0.00,,2013-03-02 16:32:00,
2013-03-02 10:42:00,16.0,9.0,30.35,SE,141,7.0,13.0,72,0.00,,,0.00,,2013-03-02 16:42:00,
2013-03-02 10:51:00,16.0,8.0,30.34,SE,127,5.0,12.0,71,0.00,,,0.00,,2013-03-02 16:51:00,
2013-03-02 11:01:00,17.0,9.0,30.34,ESE,112,5.0,11.0,70,0.00,,,0.00,,2013-03-02 17:01:00,
2013-03-02 11:11:00,17.0,9.0,30.34,ESE,112,5.0,11.0,70,0.00,,,0.00,,2013-03-02 17:11:00,
2013-03-02 11:21:00,18.0,10.0,30.33,ESE,123,8.0,13.0,70,0.00,,,0.00,,2013-03-02 17:21:00,
2013-03-02 11:32:00,18.0,10.0,30.33,ESE,123,8.0,13.0,70,0.00,,,0.00,,2013-03-02 17:32:00,
2013-03-02 11:42:00,18.0,10.0,30.33,ESE,123,8.0,13.0,70,0.00,,,0.00,,2013-03-02 17:42:00,
2013-03-02 11:52:00,18.0,10.0,30.32,ESE,109,7.0,12.0,70,0.00,,,0.00,,2013-03-02 17:52:00,
2013-03-02 12:02:00,19.0,11.0,30.32,SE,126,7.0,13.0,70,0.00,,,0.00,,2013-03-02 18:02:00,
2013-03-02 12:11:00,19.0,11.0,30.32,SE,126,7.0,13.0,70,0.00,,,0.00,,2013-03-02 18:11:00,
2013-03-02 12:22:00,19.0,11.0,30.32,SE,139,7.0,14.0,70,0.00,,,0.00,,2013-03-02 18:22:00,
2013-03-02 12:32:00,19.0,11.0,30.32,SE,139,7.0,14.0,70,0.00,,,0.00,,2013-03-02 18:32:00,
2013-03-02 12:42:00,19.0,11.0,30.32,SE,139,7.0,14.0,70,0.00,,,0.00,,2013-03-02 18:42:00,
2013-03-02 12:52:00,21.0,11.0,30.30,SSE,149,7.0,12.0,66,0.00,,,0.00,,2013-03-02 18:52:00,
2013-03-02 13:01:00,22.0,12.0,30.30,SSE,153,7.0,12.0,66,0.00,,,0.00,,2013-03-02 19:01:00,
2013-03-02 13:11:00,22.0,12.0,30.30,SSE,153,7.0,12.0,66,0.00,,,0.00,,2013-03-02 19:11:00,
2013-03-02 13:21:00,22.0,12.0,30.29,SE,139,7.0,12.0,66,0.00,,,0.00,,2013-03-02 19:21:00,
2013-03-02 13:32:00,23.0,13.0,30.28,South,173,7.0,13.0,65,0.00,,,0.00,,2013-03-02 19:32:00,
2013-03-02 13:42:00,23.0,13.0,30.28,South,173,7.0,13.0,65,0.00,,,0.00,,2013-03-02 19:42:00,
2013-03-02 13:52:00,22.0,12.0,30.27,SE,132,7.0,14.0,66,0.00,,,0.00,,2013-03-02 19:52:00,
2013-03-02 14:01:00,22.0,13.0,30.27,SE,133,7.0,13.0,68,0.00,,,0.00,,2013-03-02 20:01:00,
2013-03-02 14:11:00,22.0,13.0,30.27,SE,133,7.0,13.0,68,0.00,,,0.00,,2013-03-02 20:11:00,
2013-03-02 14:22:00,23.0,14.0,30.26,SSE,152,8.0,13.0,67,0.00,,,0.00,,2013-03-02 20:22:00,
2013-03-02 14:32:00,23.0,13.0,30.24,SE,131,10.0,17.0,66,0.00,,,0.00,,2013-03-02 20:32:00,
2013-03-02 14:42:00,23.0,13.0,30.24,SE,131,10.0,17.0,66,0.00,,,0.00,,2013-03-02 20:42:00,
2013-03-02 14:52:00,24.0,14.0,30.24,ESE,109,10.0,17.0,66,0.00,,,0.00,,2013-03-02 20:52:00,
2013-03-02 15:02:00,24.0,14.0,30.23,SE,138,8.0,15.0,66,0.00,,,0.00,,2013-03-02 21:02:00,
2013-03-02 15:11:00,24.0,14.0,30.23,SE,138,8.0,15.0,66,0.00,,,0.00,,2013-03-02 21:11:00,
2013-03-02 15:22:00,24.0,14.0,30.24,ESE,116,8.0,16.0,66,0.00,,,0.00,,2013-03-02 21:22:00,
2013-03-02 15:32:00,24.0,14.0,30.23,ESE,120,6.0,15.0,65,0.00,,,0.00,,2013-03-02 21:32:00,
2013-03-02 15:42:00,24.0,14.0,30.23,ESE,120,6.0,15.0,65,0.00,,,0.00,,2013-03-02 21:42:00,
2013-03-02 15:52:00,24.0,14.0,30.23,SE,127,9.0,17.0,66,0.00,,,0.00,,2013-03-02 21:52:00,
2013-03-02 16:02:00,25.0,15.0,30.22,ESE,115,9.0,15.0,66,0.00,,,0.00,,2013-03-02 22:02:00,
2013-03-02 16:11:00,25.0,15.0,30.22,ESE,115,9.0,15.0,66,0.00,,,0.00,,2013-03-02 22:11:00,
2013-03-02 16:22:00,25.0,15.0,30.22,ESE,122,8.0,14.0,66,0.00,,,0.00,,2013-03-02 22:22:00,
2013-03-02 16:32:00,25.0,15.0,30.22,SE,138,8.0,13.0,66,0.00,,,0.00,,2013-03-02 22:32:00,
2013-03-02 16:42:00,25.0,15.0,30.22,SE,138,8.0,13.0,66,0.00,,,0.00,,2013-03-02 22:42:00,
2013-03-02 16:51:00,25.0,15.0,30.22,SE,140,8.0,14.0,66,0.00,,,0.00,,2013-03-02 22:51:00,
2013-03-02 17:01:00,25.0,15.0,30.21,SSE,150,9.0,15.0,66,0.00,,,0.00,,2013-03-02 23:01:00,
2013-03-02 17:11:00,25.0,16.0,30.20,ESE,112,5.0,14.0,67,0.00,,,0.00,,2013-03-02 23:11:00,
2013-03-02 17:21:00,25.0,16.0,30.20,ESE,112,5.0,14.0,67,0.00,,,0.00,,2013-03-02 23:21:00,
2013-03-02 17:32:00,24.0,15.0,30.20,ESE,123,7.0,13.0,68,0.00,,,0.00,,2013-03-02 23:32:00,
2013-03-02 17:42:00,24.0,15.0,30.20,ESE,123,7.0,13.0,68,0.00,,,0.00,,2013-03-02 23:42:00,
2013-03-02 17:52:00,24.0,15.0,30.20,SSE,154,8.0,14.0,68,0.00,,,0.00,,2013-03-02 23:52:00,
2013-03-02 18:02:00,24.0,15.0,30.20,SE,142,7.0,13.0,68,0.00,,,0.00,,2013-03-03 00:02:00,
2013-03-02 18:11:00,24.0,15.0,30.20,SE,142,7.0,13.0,68,0.00,,,0.00,,2013-03-03 00:11:00,
2013-03-02 18:22:00,23.0,14.0,30.19,SSE,156,7.0,13.0,69,0.00,,,0.00,,2013-03-03 00:22:00,
2013-03-02 18:32:00,23.0,15.0,30.20,ESE,123,3.0,9.0,70,0.00,,,0.00,,2013-03-03 00:32:00,
2013-03-02 18:42:00,23.0,15.0,30.20,ESE,123,3.0,9.0,70,0.00,,,0.00,,2013-03-03 00:42:00,
2013-03-02 18:52:00,23.0,15.0,30.20,ESE,123,5.0,9.0,70,0.00,,,0.00,,2013-03-03 00:52:00,
2013-03-02 19:01:00,22.0,14.0,30.20,SE,130,5.0,11.0,70,0.00,,,0.00,,2013-03-03 01:01:00,
2013-03-02 19:11:00,22.0,14.0,30.20,SE,130,5.0,11.0,70,0.00,,,0.00,,2013-03-03 01:11:00,
2013-03-02 19:21:00,22.0,14.0,30.20,ESE,119,4.0,8.0,71,0.00,,,0.00,,2013-03-03 01:21:00,
2013-03-02 19:32:00,22.0,14.0,30.21,ESE,109,4.0,7.0,71,0.00,,,0.00,,2013-03-03 01:32:00,
2013-03-02 19:42:00,22.0,14.0,30.21,ESE,109,4.0,7.0,71,0.00,,,0.00,,2013-03-03 01:42:00,
2013-03-02 19:52:00,22.0,14.0,30.21,ESE,120,4.0,8.0,71,0.00,,,0.00,,2013-03-03 01:52:00,
2013-03-02 20:01:00,22.0,14.0,30.20,ESE,108,4.0,9.0,71,0.00,,,0.00,,2013-03-03 02:01:00,
2013-03-02 20:11:00,22.0,14.0,30.20,ESE,108,4.0,9.0,71,0.00,,,0.00,,2013-03-03 02:11:00,
2013-03-02 20:21:00,21.0,13.0,30.20,East,98,3.0,6.0,71,0.00,,,0.00,,2013-03-03 02:21:00,
2013-03-02 20:32:00,21.0,13.0,30.20,SE,132,4.0,9.0,71,0.00,,,0.00,,2013-03-03 02:32:00,
2013-03-02 20:42:00,21.0,13.0,30.20,SE,132,4.0,9.0,71,0.00,,,0.00,,2013-03-03 02:42:00,
2013-03-02 20:52:00,21.0,13.0,30.20,ESE,115,3.0,7.0,71,0.00,,,0.00,,2013-03-03 02:52:00,
2013-03-02 21:01:00,21.0,13.0,30.20,ESE,115,3.0,7.0,71,0.00,,,0.00,,2013-03-03 03:01:00,
2013-03-02 21:11:00,21.0,13.0,30.20,ESE,115,3.0,7.0,71,0.00,,,0.00,,2013-03-03 03:11:00,
2013-03-02 21:21:00,20.0,12.0,30.19,ESE,105,3.0,5.0,70,0.00,,,0.00,,2013-03-03 03:21:00,
2013-03-02 21:32:00,19.0,11.0,30.19,ESE,123,2.0,5.0,71,0.00,,,0.00,,2013-03-03 03:32:00,
2013-03-02 21:42:00,19.0,11.0,30.19,ESE,123,2.0,5.0,71,0.00,,,0.00,,2013-03-03 03:42:00,
2013-03-02 21:51:00,19.0,11.0,30.19,SE,140,3.0,5.0,71,0.00,,,0.00,,2013-03-03 03:51:00,
2013-03-02 22:01:00,18.0,10.0,30.18,SE,138,4.0,8.0,71,0.00,,,0.00,,2013-03-03 04:01:00,
2013-03-02 22:11:00,18.0,10.0,30.18,SE,138,4.0,8.0,71,0.00,,,0.00,,2013-03-03 04:11:00,
2013-03-02 22:21:00,18.0,11.0,30.18,SE,134,3.0,7.0,72,0.00,,,0.00,,2013-03-03 04:21:00,
2013-03-02 22:32:00,17.0,10.0,30.17,SE,130,2.0,5.0,73,0.00,,,0.00,,2013-03-03 04:32:00,
2013-03-02 22:42:00,17.0,10.0,30.17,SE,130,2.0,5.0,73,0.00,,,0.00,,2013-03-03 04:42:00,
2013-03-02 22:51:00,17.0,10.0,30.17,SSE,164,0.0,5.0,73,0.00,,,0.00,,2013-03-03 04:51:00,
2013-03-02 23:02:00,17.0,10.0,30.16,SE,142,1.0,5.0,74,0.00,,,0.00,,2013-03-03 05:02:00,
2013-03-02 23:11:00,17.0,10.0,30.16,SE,142,1.0,5.0,74,0.00,,,0.00,,2013-03-03 05:11:00,
2013-03-02 23:22:00,17.0,10.0,30.16,SE,128,2.0,6.0,74,0.00,,,0.00,,2013-03-03 05:22:00,
2013-03-02 23:32:00,16.0,9.0,30.15,SE,134,2.0,5.0,73,0.00,,,0.00,,2013-03-03 05:32:00,
2013-03-02 23:42:00,16.0,9.0,30.15,SE,134,2.0,5.0,73,0.00,,,0.00,,2013-03-03 05:42:00,
2013-03-02 23:52:00,16.0,9.0,30.15,SE,134,2.0,5.0,73,0.00,,,0.00,,2013-03-03 05:52:00,